Wind_Speed
7 8 8 7 5 3 2 2 3 3 4 3 4 3 3 3 3 3 4 5 5 6 6 7 7 7 7 7 7 7 7 7 6 7 7 8 8 9 10 10 10 10 10 9 10 10 9 8 7 7 9 12 11 7 6 9 12 13 13 13 11 10 9 11 12 10 8 8 9 8 5 4 5 6 6 6 7 6 4 2 4 7 8 9 9 10 11 13
7 8 8 7 4 1 1 3 3 3 4 3 3 3 3 3 3 4 4 4 5 5 6 6 6 6 6 6 6 6 6 6 6 6 6 7 7 8 9 10 10 10 10 9 9 10 9 9 7 5 6 9 10 4 4 9 12 13 13 12 11 10 10 10 11 9 7 7 7 6 6 7 6 5 5 4 6 5 1 3 3 4 7 9 11 13 14 14
8 8 7 5 1 3 3 3 3 4 4 3 3 3 3 3 3 4 4 4 4 4 5 5 5 5 5 5 5 5 6 6 5 5 6 6 7 7 9 10 10 10 10 10 9 9 10 10 10 6 4 5 6 4 5 9 12 13 13 13 11 11 10 10 9 8 8 8 7 7 8 9 8 5 6 3 5 3 4 9 11 10 13 15 14 13 15 15
8 7 6 4 4 5 4 4 4 4 4 4 4 3 3 4 3 3 4 4 4 4 4 5 5 5 5 5 5 5 5 5 5 5 5 6 6 7 8 9 9 10 9 9 10 9 10 10 11 9 4 2 2 2 6 11 13 15 14 13 11 10 9 9 9 9 9 9 8 8 8 10 10 8 7 5 3 4 8 13 13 11 14 16 14 11 14 14
7 7 7 6 7 6 4 4 4 4 4 4 4 4 4 4 3 3 3 4 4 4 5 5 5 5 5 5 5 5 4 5 4 4 5 4 5 6 6 8 8 9 9 9 10 9 9 11 12 10 6 4 6 8 11 13 14 14 13 13 11 9 7 7 8 8 9 10 10 9 9 9 10 10 7 5 3 5 9 12 13 13 13 14 12 10 12 12
7 8 7 7 6 5 4 4 4 4 4 4 4 4 4 4 4 3 4 5 5 5 6 6 6 6 6 6 7 6 5 5 4 4 5 4 4 5 5 6 7 8 8 8 9 9 8 10 11 8 6 8 10 10 11 13 14 13 13 13 12 10 9 8 9 10 11 12 11 9 9 7 8 11 10 8 6 6 8 11 14 13 10 10 10 11 11 10
7 7 6 6 5 4 4 3 3 3 3 3 3 4 4 5 5 5 6 7 7 7 8 8 7 7 7 7 8 7 6 6 6 5 5 5 4 4 4 4 5 6 6 7 8 8 7 9 10 8 7 8 9 10 10 11 14 13 12 12 12 10 10 11 13 14 13 12 10 9 9 8 11 13 14 13 12 12 12 13 14 13 10 9 11 12 12 13
7 7 6 5 5 4 4 3 3 3 3 3 4 4 6 6 7 7 8 9 9 9 9 9 8 8 8 8 8 8 7 7 6 6 6 5 5 4 4 3 4 4 4 6 6 7 6 7 9 7 6 5 5 6 7 10 12 13 12 11 10 9 10 12 12 13 11 10 10 9 11 11 11 12 14 14 15 17 14 13 15 15 14 14 15 14 14 14
8 7 6 6 5 5 4 4 4 3 3 4 5 6 7 8 8 9 9 9 9 9 9 9 8 8 8 8 8 8 8 7 7 6 6 5 5 4 3 3 3 3 3 4 5 5 5 5 6 5 3 2 3 4 6 9 10 11 11 10 7 6 8 8 9 10 9 9 9 11 14 12 11 14 14 14 16 16 14 14 16 17 17 17 18 17 16 15
8 7 7 6 6 5 5 5 5 5 5 6 6 7 8 9 9 9 9 9 9 9 9 8 8 7 7 7 7 8 7 7 6 6 6 5 5 4 3 3 2 2 2 2 3 3 3 3 3 1 1 2 3 4 6 7 7 7 8 8 5 3 4 7 8 8 8 7 7 12 18 16 14 14 14 15 15 14 14 13 13 14 16 18 20 21 20 18
8 8 7 7 6 6 6 7 6 6 7 7 8 8 9 9 9 9 9 9 9 9 8 8 7 7 7 7 7 7 7 6 6 5 5 5 5 5 4 3 3 3 3 3 2 2 2 3 1 3 3 2 3 4 5 5 4 2 3 5 5 3 5 6 3 3 9 10 8 12 19 18 15 11 13 16 15 14 12 10 9 10 15 18 21 23 23 21
8 8 8 7 7 7 7 7 7 7 8 8 8 8 8 8 8 8 8 9 9 9 8 8 7 7 7 7 7 7 6 6 5 5 5 5 5 5 5 5 5 5 5 5 3 3 4 3 3 6 6 4 3 3 3 3 1 1 1 3 3 5 6 4 1 5 13 14 11 12 16 15 14 11 13 17 18 16 9 8 8 10 16 20 22 24 23 21
7 7 7 8 7 7 7 8 8 8 8 8 8 7 7 7 7 7 7 8 8 8 8 8 7 6 6 6 6 7 6 6 5 5 5 5 5 5 5 6 6 6 6 5 5 5 5 5 6 8 8 7 6 5 3 3 3 2 3 2 2 4 5 5 7 10 14 15 12 11 11 8 8 9 12 17 18 15 9 8 8 11 17 20 22 21 18 18
6 6 6 7 7 7 7 7 8 8 8 7 6 5 5 5 5 6 6 7 8 8 7 7 7 6 6 5 5 5 6 6 5 5 5 5 6 6 6 6 6 6 6 7 7 7 7 7 9 10 11 11 10 9 6 5 6 4 4 2 2 2 4 7 11 13 14 16 13 9 7 3 4 5 8 12 14 13 9 7 8 12 15 18 20 19 17 18
5 5 5 5 6 6 7 7 7 7 6 5 4 4 4 4 4 4 5 6 7 7 7 7 7 6 6 5 4 4 4 5 5 5 5 5 6 7 7 7 7 6 7 7 7 7 8 9 10 11 12 13 13 12 10 7 7 4 5 5 2 2 6 8 10 12 12 13 12 9 7 5 6 6 6 9 12 12 9 8 11 13 14 15 18 20 20 20
4 4 3 4 4 5 5 5 5 5 4 3 3 3 3 3 3 3 4 5 6 7 6 6 7 6 5 5 4 4 3 4 5 5 6 7 7 7 7 8 8 8 7 7 8 8 8 10 11 10 10 12 12 12 11 8 8 6 5 4 6 7 8 6 3 5 9 8 8 8 7 7 9 11 9 10 13 13 13 16 17 13 12 15 17 20 21 20
4 3 2 2 3 3 3 4 3 3 2 2 1 2 2 2 3 3 3 5 6 6 6 6 6 6 6 5 5 5 5 5 5 5 6 7 8 8 8 8 8 9 8 9 9 8 8 10 11 11 10 10 10 10 9 7 7 7 6 6 9 8 7 4 4 7 8 6 6 8 8 9 12 14 14 13 14 14 16 21 22 16 14 16 18 20 21 21
5 3 2 2 2 2 2 2 2 2 2 1 0 1 1 1 2 3 3 4 5 5 6 6 6 6 7 7 7 6 6 6 5 5 5 6 7 8 8 8 8 8 8 9 9 9 8 9 12 13 11 9 8 8 6 4 3 5 6 7 7 8 4 5 9 10 9 8 9 9 8 10 12 13 14 14 15 15 14 18 21 19 19 18 19 21 20 21
4 3 3 1 1 1 1 1 1 1 2 1 1 1 1 1 2 2 3 4 4 4 5 6 6 7 7 8 8 7 7 6 6 6 6 5 6 6 7 6 7 8 8 8 9 10 9 9 11 12 10 6 6 6 3 4 7 8 9 10 8 9 5 4 9 8 6 7 9 8 9 11 13 13 14 13 13 14 11 12 16 18 20 20 19 20 21 22
3 3 3 2 1 0 1 1 1 2 2 1 0 0 0 1 2 2 3 3 4 5 5 6 7 8 7 7 8 8 8 8 7 7 7 7 8 8 7 7 7 8 8 8 9 10 10 10 10 9 8 6 5 5 6 8 10 11 12 13 12 10 6 6 7 7 5 4 6 9 9 10 14 13 10 9 10 13 12 9 11 15 16 18 19 20 21 22
5 3 3 3 2 1 1 1 2 2 1 1 1 1 1 1 1 2 3 3 4 5 5 6 7 8 6 7 7 7 9 9 8 9 9 9 9 8 8 9 10 10 8 8 8 9 10 11 10 7 7 7 9 9 8 8 9 10 13 13 12 9 5 7 9 11 10 10 10 10 10 9 8 7 7 7 10 14 13 9 10 13 15 18 20 21 21 20
7 5 4 4 4 3 3 2 2 2 2 1 2 2 0 1 1 2 3 3 5 6 6 7 8 8 7 7 7 7 9 11 10 9 9 7 7 8 9 10 11 11 11 9 8 8 8 9 9 9 9 10 11 10 9 9 8 9 12 13 13 10 5 5 7 10 12 14 13 11 11 7 3 7 11 9 8 12 15 15 16 17 20 21 21 21 20 20
10 8 6 6 5 5 5 4 3 3 2 3 3 2 1 1 2 3 3 4 5 5 6 8 9 8 8 7 7 7 8 9 9 8 6 6 7 8 9 10 9 10 10 10 9 8 8 10 12 13 13 13 11 9 10 10 9 9 10 10 12 11 6 2 4 6 7 12 14 8 8 1 11 14 15 8 7 10 14 17 18 18 20 22 22 22 22 22
11 9 8 8 7 7 6 6 5 5 4 4 4 3 2 2 2 3 4 4 5 5 6 7 9 7 7 7 7 8 8 8 8 8 8 9 10 11 11 11 10 10 10 12 13 13 13 14 15 15 17 16 13 10 8 8 7 8 11 9 9 11 10 7 5 4 2 8 10 4 3 4 13 15 14 9 9 9 12 16 17 18 18 20 22 23 24 23
12 10 9 9 9 9 8 8 7 7 6 5 5 5 3 3 3 3 4 5 5 6 6 7 7 5 5 5 6 7 8 9 8 9 10 11 12 13 13 13 13 12 12 13 14 14 16 16 15 15 16 15 13 9 6 6 5 5 10 11 11 10 10 9 8 6 0 5 7 3 6 7 12 15 15 13 11 10 12 14 16 19 20 20 22 24 25 25
12 10 9 9 10 10 10 10 9 9 8 7 7 6 5 4 4 4 5 5 5 5 6 7 6 5 5 5 5 5 8 11 11 11 11 12 12 13 13 13 14 14 14 15 14 13 16 17 16 16 14 12 12 11 8 6 6 5 7 10 12 12 10 9 9 7 1 4 7 8 8 9 12 14 13 12 13 14 15 16 18 21 22 23 24 25 27 27
12 11 10 10 10 11 11 11 11 11 10 10 9 8 7 7 6 5 6 7 6 7 7 7 5 5 7 7 6 6 7 9 12 13 13 11 12 13 12 13 13 13 13 14 14 14 16 17 17 16 14 11 12 13 11 10 10 10 9 9 10 12 12 10 9 8 2 5 10 12 7 4 10 11 10 11 14 17 18 19 21 23 24 26 27 28 29 30
13 12 10 10 10 11 12 12 13 12 12 12 11 11 10 9 8 8 8 8 8 8 8 7 6 6 6 7 7 8 8 8 8 10 12 12 12 12 12 12 13 12 12 12 13 14 15 15 16 16 14 13 13 12 11 13 14 12 11 10 10 11 11 11 11 7 5 8 11 10 10 7 9 11 13 15 17 19 20 21 22 24 27 29 30 32 33 34
13 12 11 10 11 11 12 13 14 14 14 14 13 13 12 11 10 10 10 10 9 9 9 9 8 7 6 7 8 9 9 10 9 8 9 11 11 11 12 13 13 12 12 13 13 14 14 14 15 16 15 15 15 14 12 13 14 14 14 13 11 13 12 12 12 7 8 12 11 8 9 9 10 13 17 20 22 22 22 24 25 27 28 30 33 34 36 37
12 12 12 11 11 12 12 13 14 15 15 15 15 15 14 13 13 12 11 11 11 10 10 10 9 9 8 8 9 10 11 12 12 11 9 9 9 9 10 11 11 11 12 14 15 15 15 14 14 15 16 15 15 17 16 15 17 20 20 15 13 14 13 14 13 10 12 15 12 9 11 10 12 17 21 24 26 26 26 27 29 30 31 33 35 37 38 40
14 13 12 13 12 12 13 13 14 15 15 16 16 17 16 15 15 14 12 12 12 11 11 10 10 11 11 10 11 11 12 13 13 13 12 10 9 9 9 10 10 10 11 13 15 17 15 14 13 13 15 16 15 16 18 18 20 24 24 19 17 16 14 15 14 12 13 14 11 11 12 14 17 20 23 25 28 29 29 31 32 33 35 36 37 39 41 42
16 15 13 13 13 13 13 14 15 15 16 17 17 18 18 18 17 15 13 13 13 12 12 11 12 13 13 13 13 13 14 15 15 15 15 13 11 10 10 10 10 10 10 12 15 17 16 15 14 14 16 18 17 16 18 18 20 25 26 23 23 20 17 15 14 13 13 12 12 13 14 17 21 23 24 27 29 30 31 33 34 36 37 38 40 41 43 45
17 18 16 15 14 14 14 14 15 16 16 17 18 19 19 20 19 17 15 15 15 15 15 14 14 15 16 15 15 15 15 16 16 17 18 17 14 12 12 13 13 12 11 12 14 16 17 17 16 17 18 18 18 18 17 17 19 24 26 25 26 25 22 19 16 14 13 13 14 15 16 20 24 25 26 28 30 31 32 34 37 39 40 40 42 43 45 46
18 20 19 18 17 16 16 16 16 16 17 18 19 20 20 21 20 18 17 17 17 18 19 17 16 17 19 18 17 17 17 17 18 19 20 20 19 15 14 16 17 17 16 14 13 14 17 19 19 20 21 20 20 20 20 19 19 23 24 24 26 27 26 23 20 18 18 17 17 16 18 22 25 26 27 29 31 32 34 36 38 40 42 43 44 45 45 45
20 21 22 21 19 19 18 18 17 17 18 19 20 21 21 21 21 20 20 20 20 21 22 20 18 20 22 21 20 18 17 18 21 22 22 23 24 20 17 16 16 18 20 20 17 14 15 17 20 21 21 20 19 20 23 24 22 22 23 24 25 26 26 25 24 23 23 22 20 20 22 23 26 28 29 31 33 33 35 37 39 41 42 44 45 45 46 47
24 24 24 23 23 22 21 21 20 20 20 20 21 22 23 22 21 21 21 22 23 22 23 23 21 22 24 25 24 21 19 20 23 24 25 26 27 25 23 21 18 18 21 24 22 19 15 15 19 22 20 20 19 18 22 26 25 24 23 24 24 25 26 27 26 25 25 25 25 25 26 26 28 30 31 33 34 34 36 39 40 42 43 45 46 47 49 50
27 27 27 26 26 25 24 24 24 23 23 22 23 24 24 23 21 21 22 24 26 25 25 25 24 24 26 29 29 26 23 24 25 26 26 28 30 29 27 25 22 20 21 25 25 23 20 16 17 20 19 20 22 21 23 27 27 26 25 25 24 25 27 27 27 26 27 28 29 29 30 31 32 32 33 35 36 37 39 42 43 45 46 47 49 50 52 53
28 29 30 29 29 28 26 26 27 26 26 25 25 26 27 26 22 21 22 25 27 27 26 27 26 26 27 30 32 32 30 28 28 28 28 30 32 32 30 28 26 22 22 26 27 26 26 22 17 19 19 19 21 22 23 26 28 28 28 27 26 26 26 26 27 28 29 31 32 32 33 34 34 34 35 37 39 40 43 45 47 48 49 50 52 53 54 55
29 29 32 32 31 31 30 29 30 29 29 29 28 28 29 28 25 23 24 27 28 28 28 29 28 28 28 29 32 34 34 33 32 31 31 33 34 35 34 32 31 28 24 26 29 28 30 29 22 20 20 19 19 21 23 26 28 29 29 29 28 28 29 29 30 30 32 34 35 36 36 36 36 36 37 38 41 43 46 48 49 49 50 52 53 54 55 56
32 30 33 34 32 32 32 33 32 32 32 31 31 32 32 31 29 27 27 28 29 30 31 31 30 29 29 30 32 34 35 35 34 34 34 35 35 37 37 35 34 33 29 28 29 29 31 33 30 25 22 20 19 22 24 26 28 30 31 31 30 29 31 33 34 34 35 37 38 39 40 40 39 40 41 42 43 45 47 49 49 51 52 54 55 56 56 57
35 32 33 36 34 32 33 35 35 35 35 34 34 35 35 34 33 31 30 29 30 32 33 33 32 31 31 32 33 34 34 34 34 35 36 36 37 38 38 38 36 35 34 33 32 32 32 36 36 31 26 23 21 22 26 28 29 30 32 33 32 32 33 35 37 37 38 40 40 42 44 43 42 43 44 44 45 46 48 49 51 52 54 55 56 57 58 59
38 34 34 37 37 34 34 34 36 37 37 36 37 37 37 36 35 34 33 32 33 34 35 35 34 34 34 34 34 35 35 34 34 35 36 37 38 39 39 40 38 36 36 36 34 33 34 37 38 35 32 28 24 24 27 29 30 31 33 34 34 35 36 37 39 40 41 43 42 44 47 45 43 44 46 46 47 50 51 52 54 54 55 56 57 58 59 60
40 37 35 38 38 36 35 35 36 39 39 38 38 38 39 38 36 35 35 37 37 36 36 36 36 36 37 38 37 36 36 36 36 36 37 37 38 39 40 40 40 39 38 37 36 35 36 38 38 37 35 32 28 27 29 30 31 33 35 35 36 38 39 40 42 43 45 45 44 47 49 47 46 46 48 50 51 53 54 55 56 57 57 58 58 59 60 60
43 40 38 39 40 38 38 37 37 39 40 40 39 39 39 39 37 36 36 37 39 39 38 37 37 38 39 39 39 38 37 38 38 37 37 37 38 39 40 40 40 40 40 39 38 38 38 38 38 38 38 36 31 30 31 32 33 35 37 38 39 39 40 42 43 45 48 47 47 50 50 49 49 49 50 53 55 56 57 58 59 59 59 60 60 61 62 63
45 43 40 40 42 41 40 40 39 39 39 40 41 41 40 40 39 37 37 37 39 41 40 38 38 38 39 40 40 39 39 38 39 39 38 38 38 39 40 41 41 41 41 40 40 39 39 39 39 40 41 40 37 35 34 35 36 37 38 39 40 41 43 44 46 48 49 47 50 54 52 49 51 51 51 55 58 57 58 59 61 61 62 62 62 62 63 64
47 45 42 40 42 43 43 42 41 40 39 40 41 43 43 42 40 38 38 38 38 40 41 41 40 39 40 41 41 42 41 40 40 40 39 38 39 40 41 41 42 42 41 41 40 40 39 39 39 39 41 42 41 40 39 40 40 40 40 40 40 42 44 46 48 50 49 49 52 54 53 52 52 52 52 55 56 56 57 59 61 62 64 64 63 63 64 65
49 48 46 43 41 43 44 44 43 42 41 41 42 43 44 44 43 40 39 39 39 40 42 42 42 41 41 42 43 45 44 43 42 41 39 38 38 39 41 41 42 43 42 42 41 40 40 40 39 39 40 41 42 41 40 42 43 44 44 43 41 42 44 46 48 48 48 52 53 50 51 55 54 53 55 56 56 58 60 62 64 65 65 65 64 65 66 67
51 50 49 48 45 43 43 44 45 44 44 44 44 44 44 44 43 42 41 42 42 41 42 43 43 43 42 43 45 46 46 45 44 42 40 39 38 38 39 41 42 43 44 43 42 42 42 41 40 40 41 42 42 42 41 43 45 46 47 46 44 44 46 47 48 47 48 53 53 50 51 55 54 53 55 57 58 61 64 65 66 66 65 65 65 67 68 69
55 54 53 53 52 48 45 44 46 47 46 46 47 46 46 45 44 43 42 43 44 44 44 45 44 44 43 44 46 47 47 46 44 42 40 39 39 39 39 41 43 44 45 44 44 45 45 44 44 43 43 43 43 42 42 44 46 48 49 47 45 46 47 49 49 49 51 54 54 53 54 54 53 54 55 57 60 62 64 65 65 65 66 66 67 68 69 68
59 58 57 56 56 54 51 48 48 49 49 49 50 48 47 48 47 46 46 45 46 46 46 46 46 46 46 45 46 46 46 46 44 43 42 40 39 40 41 42 44 44 45 45 46 46 47 48 49 47 47 48 45 43 43 45 47 50 50 47 45 47 48 49 49 50 52 54 54 55 55 55 55 56 57 58 60 61 63 65 65 66 67 66 66 68 68 68
62 62 61 61 59 57 56 54 52 52 51 51 52 50 50 51 51 51 51 49 48 48 48 49 49 49 48 48 47 47 46 45 45 45 45 44 43 44 44 45 45 46 46 45 45 47 48 50 51 50 52 53 49 46 46 46 50 53 50 46 46 49 49 49 49 51 53 55 55 56 56 55 56 58 59 60 61 62 64 65 66 65 65 66 67 68 68 68
66 65 65 65 63 61 60 59 57 56 54 52 52 52 53 54 54 55 56 54 52 51 51 52 52 51 51 52 52 51 49 48 47 46 47 48 49 48 48 48 48 48 47 45 45 46 48 49 50 51 53 55 54 51 50 51 55 54 48 46 49 50 49 50 51 52 54 55 56 57 57 57 59 60 60 61 63 64 66 66 66 65 65 67 68 69 68 67
Wind_Direction
338 339 336 337 340 339 21 70 88 89 92 98 105 112 113 115 117 115 114 113 110 101 95 91 89 88 87 87 84 84 81 79 77 76 76 73 73 77 80 81 83 83 78 77 77 75 72 70 57 42 52 71 77 62 70 88 80 75 71 64 62 56 37 35 43 38 36 36 37 26 353 353 2 18 46 68 92 98 112 116 286 298 321 320 325 341 352 359
338 336 331 330 335 350 92 94 104 101 105 114 122 131 131 131 133 128 121 118 114 106 99 95 90 86 84 84 80 79 77 76 71 70 71 70 71 76 81 84 84 86 84 80 77 76 74 76 76 47 34 65 79 93 104 89 79 76 72 65 57 47 37 33 34 26 23 28 27 16 353 353 338 352 49 78 77 73 35 22 1 327 337 330 332 336 339 344
346 344 340 339 38 131 122 107 111 112 117 127 135 140 140 142 146 135 126 120 114 104 97 94 91 86 81 80 78 74 71 71 66 61 62 64 67 73 81 84 84 85 86 83 76 72 69 71 75 63 21 48 85 145 115 85 81 78 70 65 55 40 32 26 23 18 21 26 18 9 1 346 323 349 38 29 36 31 324 10 24 12 359 348 339 336 336 339
4 9 12 45 114 126 121 112 114 117 122 130 134 137 142 148 150 136 123 116 109 94 81 78 80 77 73 71 71 70 65 65 63 55 55 56 61 70 79 83 83 83 84 84 80 75 69 68 66 57 26 5 66 71 53 64 73 72 67 62 55 39 26 11 3 7 15 22 20 16 5 341 331 357 17 12 11 330 340 14 22 15 8 356 345 342 338 341
27 38 48 80 109 117 116 115 113 117 121 125 130 134 143 147 146 129 108 102 98 84 67 60 61 60 57 55 58 60 53 55 57 57 55 53 58 67 79 82 83 85 86 82 79 79 75 73 68 53 30 11 23 34 41 55 67 72 71 66 58 49 37 12 357 9 21 24 23 19 5 344 351 8 14 20 6 334 358 19 24 27 18 360 356 358 345 342
43 54 64 82 98 109 112 114 112 112 119 122 127 135 140 137 130 111 90 86 85 75 64 57 54 51 46 41 45 47 43 44 44 47 49 45 50 61 73 77 82 88 91 86 79 80 75 72 75 65 42 32 25 28 37 49 59 68 72 68 61 60 53 30 17 26 31 24 20 22 10 6 34 37 32 26 8 2 21 35 39 37 20 356 3 13 6 0
50 61 68 76 88 102 108 109 106 109 118 120 125 130 128 123 113 95 81 77 75 70 63 58 55 51 46 41 41 42 41 37 35 34 35 33 32 44 59 64 76 87 90 90 86 84 78 70 74 73 53 42 28 19 24 41 53 59 72 74 66 61 44 26 27 32 35 27 19 28 36 57 69 54 45 37 22 22 28 35 38 36 32 21 18 25 28 20
52 63 69 73 81 91 100 102 99 106 111 112 117 117 113 109 98 85 79 76 73 68 63 59 56 51 48 44 42 43 43 40 37 33 31 27 20 26 43 52 64 77 82 84 85 84 83 75 74 74 63 50 37 26 19 33 49 60 75 83 76 66 37 25 34 38 47 44 22 27 45 60 63 47 44 45 36 31 30 29 24 20 19 16 16 20 22 18
52 61 69 73 77 84 90 93 94 99 99 102 104 104 102 97 91 85 81 75 69 65 61 59 57 51 46 44 43 41 43 46 40 34 34 27 21 20 24 37 47 59 70 71 74 74 72 74 74 77 78 51 30 33 25 29 47 63 77 84 82 77 42 40 58 46 51 49 20 30 44 42 40 32 22 26 30 27 27 23 14 7 1 0 0 0 2 5
54 60 69 73 76 80 87 91 94 97 99 101 99 97 96 93 89 84 77 70 63 57 54 54 53 49 41 39 44 40 40 48 44 34 34 29 25 22 13 19 24 29 57 68 72 69 64 65 63 57 69 38 12 15 26 35 50 65 77 75 76 105 51 57 73 44 41 48 21 35 45 33 26 22 359 1 13 13 19 16 5 357 350 348 346 345 347 345
58 63 69 74 77 80 89 93 95 101 105 104 101 98 94 88 81 73 68 63 57 52 48 47 48 49 40 30 34 39 37 41 44 35 29 29 24 17 9 2 355 347 351 16 29 9 15 38 15 282 300 353 4 8 20 43 74 103 74 49 43 56 36 48 91 25 30 44 33 39 46 30 13 359 339 346 351 353 10 12 0 345 337 338 336 335 335 330
64 68 73 76 80 85 91 96 102 106 109 109 106 100 91 82 72 64 62 59 54 49 44 42 45 49 44 28 20 28 35 33 33 28 19 22 17 10 10 2 350 343 344 353 351 340 350 356 296 283 304 320 325 348 351 12 38 222 346 5 7 15 19 35 48 5 18 27 33 43 48 30 6 345 328 332 331 333 355 21 8 334 326 329 326 323 320 320
70 73 78 82 86 91 96 102 108 111 114 115 110 101 89 76 67 62 61 56 48 43 40 38 42 48 48 41 19 10 24 29 21 19 14 9 8 6 6 360 349 343 339 339 340 339 332 313 293 294 306 308 310 327 329 351 344 297 338 310 256 342 0 31 21 9 11 14 26 43 47 30 3 343 319 323 326 323 337 12 359 324 318 315 312 315 315 319
74 78 84 89 92 97 103 107 112 117 119 118 111 99 81 66 60 57 56 48 39 35 33 31 35 43 45 50 39 7 9 20 14 13 11 0 358 356 353 350 339 334 334 336 337 327 311 300 299 301 306 308 314 325 328 344 342 317 325 322 210 276 342 24 18 10 4 360 10 31 32 355 330 331 313 320 322 315 325 342 315 296 296 298 306 318 323 325
70 80 88 96 100 104 109 113 117 121 123 119 108 85 61 51 47 46 47 39 32 27 24 25 28 37 42 44 50 28 2 7 8 1 359 357 351 343 339 338 333 335 337 329 319 310 304 299 301 303 307 313 319 323 324 327 331 305 247 250 263 330 9 30 28 14 350 343 359 6 358 336 327 330 312 321 322 307 300 300 293 285 282 289 304 317 322 326
48 73 85 97 106 113 117 120 123 125 125 118 96 65 42 36 30 30 34 26 24 24 22 24 24 30 38 37 44 44 11 0 4 357 354 350 341 335 336 336 332 333 328 312 307 309 308 300 299 301 304 313 318 318 315 305 301 292 252 275 338 7 32 44 32 338 315 326 353 336 329 343 346 341 327 332 330 307 285 285 292 290 287 294 297 306 317 322
21 48 71 89 102 114 124 126 130 137 134 122 94 51 20 15 15 17 21 16 16 24 25 23 22 24 25 24 31 33 14 359 6 8 357 342 334 338 342 339 330 322 315 310 312 312 308 301 295 294 296 306 315 312 296 267 269 301 325 352 348 350 32 93 223 280 300 314 326 316 325 343 344 336 324 325 323 306 283 278 281 272 274 292 295 298 305 310
2 15 39 75 99 109 124 128 140 158 160 162 145 20 333 344 13 15 14 15 15 23 29 23 17 17 15 13 16 16 3 358 3 3 352 337 333 335 336 336 323 312 314 317 317 310 301 291 287 290 297 304 305 294 268 241 279 321 338 358 340 324 1 151 215 268 290 275 282 304 328 339 333 315 303 306 312 309 283 268 274 270 268 280 288 291 298 303
345 347 2 29 84 113 136 154 176 200 201 202 234 286 276 1 26 13 15 19 13 14 25 22 5 2 9 5 1 357 346 350 357 351 347 341 334 330 328 329 322 323 331 328 319 311 298 284 283 287 293 296 278 270 297 349 351 344 341 342 321 305 316 199 226 267 281 262 273 303 326 333 322 299 283 287 299 301 275 250 266 274 274 280 286 289 295 299
318 320 326 338 353 82 179 196 226 236 224 207 232 273 330 50 26 9 22 15 358 356 8 17 359 351 3 359 352 348 339 348 359 353 352 351 344 343 338 334 339 342 339 328 318 311 301 288 288 287 282 290 298 316 2 3 351 343 334 322 304 307 305 252 280 326 347 334 325 325 322 315 311 302 283 277 278 278 270 252 261 273 281 286 288 288 288 291
296 285 291 297 298 291 252 221 236 239 224 214 243 223 119 65 6 9 16 351 351 354 357 9 351 337 349 353 349 347 340 348 3 2 2 2 355 349 345 348 352 348 341 338 323 308 298 288 293 299 295 319 343 350 355 348 336 326 324 313 300 318 318 270 308 341 352 353 342 327 311 294 304 310 279 260 258 268 282 295 288 288 290 287 284 282 285 294
297 272 265 269 270 272 265 247 240 240 236 258 257 236 170 39 353 356 347 342 354 351 352 359 340 329 348 355 354 1 355 353 4 11 6 360 1 0 358 1 0 349 342 346 334 312 301 299 314 327 333 353 360 347 336 339 337 317 322 320 299 301 299 270 314 336 345 340 326 320 314 300 184 223 252 255 266 283 297 304 298 292 289 287 288 292 299 308
309 280 262 258 258 259 262 258 253 248 244 256 261 260 277 326 334 335 332 344 350 345 352 346 328 332 354 357 1 15 16 6 5 12 7 3 16 18 10 8 8 356 344 348 350 342 335 336 343 343 345 360 3 345 333 343 349 323 320 320 297 296 309 328 330 326 336 321 309 314 320 294 168 217 253 261 266 281 289 290 289 288 284 285 291 297 303 307
319 295 269 258 256 255 257 260 263 260 252 253 259 262 267 286 305 316 322 333 335 338 346 328 315 335 356 359 9 15 20 18 8 5 10 20 28 26 18 14 16 9 355 356 360 354 350 353 355 349 345 351 356 355 336 325 329 312 309 319 315 316 331 348 342 326 299 284 293 303 277 189 174 212 244 252 253 262 278 284 286 288 288 290 294 296 298 301
322 307 283 264 258 256 255 258 262 260 255 259 264 262 260 271 283 295 308 320 327 331 330 317 316 342 356 357 6 2 3 7 2 2 9 18 23 21 18 14 18 19 8 5 8 357 350 356 358 351 346 346 348 353 339 314 315 301 304 320 330 329 332 337 338 347 25 251 283 257 220 193 181 207 227 245 266 273 276 286 289 288 290 295 300 302 304 307
321 312 295 275 263 258 257 257 260 260 260 264 264 263 263 267 270 274 288 301 312 310 305 307 319 336 327 326 339 342 353 354 347 353 5 10 13 13 11 8 11 17 10 5 10 3 356 359 360 355 351 349 343 343 348 346 350 342 321 320 324 326 332 339 341 345 4 225 263 251 219 182 190 219 235 247 273 282 279 288 293 290 290 296 303 308 310 312
321 314 300 286 272 264 260 259 261 262 264 267 266 267 268 269 269 271 279 287 291 288 291 301 309 313 312 317 328 330 345 351 341 344 355 1 5 3 3 3 3 6 4 358 358 1 1 359 359 0 356 351 345 344 352 0 359 354 342 329 322 323 328 333 337 336 312 220 244 263 275 209 210 246 267 258 264 272 277 289 295 295 297 302 308 310 310 308
321 316 304 291 282 273 266 262 262 263 264 266 268 269 270 272 275 278 282 286 289 290 292 297 299 305 314 319 323 326 334 340 336 339 345 352 359 358 356 359 357 357 357 350 345 351 356 353 352 355 351 349 349 348 351 353 350 341 333 330 324 323 321 317 324 325 274 246 254 281 308 286 252 271 280 271 267 267 277 291 297 301 304 306 307 305 304 302
319 318 311 296 286 282 275 268 264 263 264 266 268 270 272 276 278 281 287 290 291 295 296 299 303 306 314 318 318 322 324 322 323 332 340 347 354 355 353 352 351 352 350 344 339 344 351 351 347 343 339 339 338 335 336 338 330 317 316 322 316 315 313 305 310 301 263 275 290 301 301 278 262 268 268 270 276 279 285 294 296 298 301 300 300 299 299 299
312 316 314 304 291 284 281 277 271 266 266 267 269 270 273 276 278 281 286 288 289 292 296 301 302 296 299 306 305 309 312 312 316 322 330 343 349 350 348 345 345 349 347 341 336 342 353 355 348 339 332 329 324 321 321 323 317 307 309 314 306 305 305 299 304 298 279 291 305 305 299 283 258 254 258 266 275 282 287 290 292 293 294 294 295 295 295 295
303 307 310 308 300 289 283 280 277 274 271 270 271 273 275 276 277 280 283 286 289 289 290 294 292 290 294 298 297 300 303 304 309 315 320 328 335 333 333 336 338 342 341 334 332 340 350 350 343 334 327 326 322 316 314 316 312 305 305 306 298 297 297 294 300 295 282 289 297 290 287 280 266 260 263 266 270 274 278 282 285 288 289 290 290 291 290 290
295 297 300 303 302 296 288 282 279 279 277 275 274 274 276 277 278 281 284 285 285 283 281 282 282 286 290 292 294 297 298 302 306 308 310 314 319 320 321 325 326 327 330 330 330 335 341 341 335 329 327 329 327 317 312 310 304 300 303 304 298 296 292 290 294 286 274 277 281 276 273 273 273 272 273 274 274 274 277 280 281 283 284 285 285 286 286 286
287 290 292 293 296 298 295 288 283 280 277 276 275 274 275 276 278 282 281 278 278 279 278 278 280 282 283 285 290 294 296 301 302 302 304 306 310 314 316 318 317 317 322 325 326 328 333 335 330 326 326 328 328 319 309 302 294 294 301 301 297 296 295 292 290 278 269 269 270 271 271 271 274 276 279 281 281 281 282 282 282 282 283 283 283 283 282 282
279 283 286 287 290 293 294 291 287 282 279 276 275 274 274 275 279 282 279 275 275 276 277 278 280 281 281 283 286 289 294 299 298 297 299 301 303 307 311 312 311 313 315 317 318 322 329 330 326 324 325 328 330 321 311 306 296 292 296 295 294 295 296 295 290 281 278 274 270 270 268 269 273 277 278 279 280 282 284 283 282 282 281 281 281 280 281 281
276 277 280 283 285 285 286 287 286 284 281 279 276 275 274 275 278 280 279 277 274 275 277 279 279 280 282 284 283 284 290 293 291 292 295 296 296 298 301 301 303 306 309 310 312 317 323 323 318 318 321 326 327 316 310 310 304 299 298 294 294 296 295 294 291 289 288 284 280 277 273 272 274 276 277 279 281 282 282 281 280 279 279 279 281 282 283 284
276 275 276 278 279 279 281 282 283 283 281 280 278 277 276 276 277 278 279 279 276 275 277 279 279 280 282 284 283 283 283 282 282 286 289 290 291 293 296 296 297 301 304 305 307 310 313 312 310 312 315 318 318 308 304 308 307 303 299 295 295 295 293 292 292 292 292 291 290 288 285 283 281 282 284 285 286 286 285 284 283 282 283 284 285 286 287 288
276 276 276 276 275 276 278 279 280 280 280 279 278 278 278 278 278 277 277 277 276 276 277 278 279 280 282 284 285 284 281 279 281 284 286 287 289 291 293 293 295 297 299 298 300 304 305 302 302 307 309 309 313 310 304 307 309 306 301 298 296 293 291 292 293 292 292 292 292 291 290 289 287 288 289 289 290 290 289 289 288 288 289 290 290 290 290 291
275 276 275 274 274 275 276 276 276 277 278 278 277 277 279 280 280 277 274 273 274 277 277 277 278 278 280 283 285 286 284 282 282 284 284 284 286 289 290 291 292 293 291 292 294 298 301 299 296 299 301 300 306 307 300 300 305 303 299 297 295 291 289 288 287 288 289 288 288 287 287 288 288 288 289 290 292 292 291 291 291 291 291 291 291 290 291 292
273 273 273 273 273 274 274 273 274 275 275 275 276 276 277 280 281 278 273 272 274 276 277 277 277 277 276 278 281 284 285 286 286 285 284 284 286 288 289 291 292 292 289 289 292 294 295 296 294 292 295 297 298 299 295 294 296 295 294 293 292 291 290 287 286 285 284 284 285 286 287 288 289 289 289 290 290 291 291 291 290 290 290 290 289 289 290 292
272 272 272 272 272 273 273 273 272 272 273 273 274 275 275 277 277 275 272 273 276 277 276 277 277 277 276 276 277 279 281 284 286 286 285 286 287 287 288 290 291 291 290 287 287 288 290 292 292 292 293 295 294 294 294 292 290 290 290 288 288 288 288 288 287 286 286 286 287 289 289 290 291 291 291 290 290 291 291 290 288 288 288 288 289 290 291 292
273 271 271 272 272 271 272 273 272 272 272 272 272 273 274 274 275 274 272 272 274 275 276 277 277 277 276 275 275 277 279 281 283 284 284 284 284 285 287 288 288 288 288 287 286 287 287 289 292 294 295 294 293 292 291 291 291 289 287 286 287 286 285 286 286 287 287 287 287 288 287 288 289 290 290 291 291 291 290 288 287 287 288 289 291 292 293 294
273 271 270 272 272 270 269 269 271 271 271 271 271 272 273 273 273 274 273 271 269 270 273 276 278 278 277 275 276 278 280 280 280 280 281 282 283 284 284 285 286 285 286 286 286 286 286 287 291 295 295 295 293 290 288 289 290 288 287 288 288 287 286 286 286 286 285 284 285 285 284 286 288 289 291 292 292 290 290 290 290 291 291 293 293 294 295 296
274 272 270 271 271 270 268 266 268 270 271 270 271 271 271 271 271 271 272 272 272 271 271 273 275 276 276 277 277 278 279 279 278 278 279 280 282 282 282 283 285 284 284 284 283 283 283 285 288 291 291 292 291 289 288 289 290 289 289 290 288 287 287 286 286 287 286 285 286 286 286 289 291 291 293 294 292 292 293 295 296 295 295 295 295 296 297 298
274 273 272 271 270 269 268 267 266 268 269 270 270 270 270 271 271 270 270 272 273 273 272 272 273 274 275 275 276 276 277 277 278 279 280 281 282 282 282 283 283 283 283 282 282 283 283 284 287 288 289 290 289 286 286 288 288 288 290 290 289 288 287 287 288 288 287 289 291 290 290 293 295 295 295 294 292 294 296 297 297 296 295 295 296 298 298 298
274 273 273 273 272 270 269 268 267 266 267 269 270 270 269 269 269 269 269 269 271 273 273 273 273 274 274 275 275 275 275 276 277 278 279 280 281 282 282 283 283 284 283 283 283 284 283 284 286 288 291 292 291 288 288 288 287 288 289 289 289 290 290 290 291 289 291 294 293 291 293 296 297 298 297 294 294 296 297 296 295 295 294 295 296 297 297 297
272 272 272 271 272 272 271 270 269 268 267 267 269 270 270 270 269 269 269 269 269 271 272 273 274 274 274 275 276 276 276 276 277 278 280 280 281 282 283 284 284 284 283 283 282 282 282 283 284 286 289 291 291 292 292 292 292 291 289 287 288 289 290 291 290 291 294 293 290 292 295 296 294 294 293 293 294 295 294 293 293 292 293 294 296 296 297 298
273 273 272 270 269 271 272 272 271 271 269 268 267 268 270 271 272 272 271 271 270 269 270 272 273 274 274 275 276 276 277 278 278 279 281 282 283 284 285 285 285 285 284 283 283 283 282 283 284 284 285 287 289 290 289 289 291 291 289 288 287 286 286 286 287 289 290 287 289 294 294 291 290 290 288 289 290 291 290 290 291 291 293 295 297 299 300 300
273 273 273 271 269 268 269 272 273 272 272 271 270 269 269 270 272 273 273 273 273 272 271 270 270 272 274 275 275 275 276 277 279 281 283 284 285 285 285 284 283 283 284 284 285 285 285 285 285 284 285 286 286 286 286 286 288 289 288 289 291 289 286 285 286 287 286 287 290 293 290 289 290 288 287 287 287 288 290 291 292 294 296 297 298 301 301 300
274 273 273 272 271 270 269 269 270 271 272 272 271 271 272 272 272 273 272 272 272 273 272 271 271 272 272 272 273 275 276 278 280 283 284 285 285 285 283 282 282 282 284 285 286 287 287 288 287 286 287 286 286 286 285 285 287 287 287 289 293 292 287 286 287 288 287 289 292 292 289 288 288 287 287 288 289 292 295 296 297 297 297 298 300 301 301 300
273 273 273 272 272 272 271 269 269 270 270 271 272 273 274 275 274 273 271 271 271 272 272 273 273 272 271 271 272 274 277 279 281 283 283 283 283 282 281 281 281 282 284 286 286 287 288 288 288 288 287 285 286 286 285 285 286 286 287 292 293 290 287 289 290 289 288 290 291 290 289 288 288 288 290 292 295 298 300 299 298 298 299 300 301 300 299 297
273 273 273 272 271 272 272 271 270 269 270 271 273 274 274 274 274 273 272 271 271 271 272 272 273 273 275 275 275 275 276 278 279 281 281 281 280 279 279 280 281 281 282 283 284 285 286 287 288 288 287 287 288 287 286 286 285 286 291 295 292 289 290 292 292 291 291 292 291 291 292 292 291 291 293 296 298 301 301 299 298 299 300 300 299 298 296 296
273 273 272 272 272 272 272 271 271 270 270 271 272 273 273 273 273 273 273 273 272 272 272 273 275 277 278 278 278 277 276 274 275 277 278 279 279 280 280 280 280 280 281 281 282 283 284 284 285 286 287 288 288 289 289 287 285 289 296 295 290 291 294 294 294 295 295 293 292 292 293 293 293 293 295 296 298 299 299 299 299 300 300 299 297 296 296 296
Height
5877 5877 5876 5876 5875 5875 5875 5875 5876 5876 5876 5876 5876 5876 5876 5876 5875 5875 5875 5875 5875 5875 5874 5874 5874 5873 5873 5873 5872 5872 5871 5871 5871 5870 5870 5869 5869 5869 5868 5868 5867 5866 5866 5865 5864 5863 5863 5862 5861 5860 5859 5857 5856 5857 5857 5854 5852 5851 5850 5850 5850 5850 5850 5849 5848 5848 5848 5847 5847 5847 5847 5846 5846 5845 5844 5843 5843 5842 5842 5843 5842 5841 5840 5840 5840 5840 5840 5840
5877 5876 5875 5875 5875 5874 5875 5875 5875 5875 5875 5875 5876 5876 5876 5875 5875 5875 5875 5875 5875 5875 5874 5874 5874 5874 5873 5873 5872 5872 5872 5871 5871 5870 5870 5869 5869 5869 5868 5868 5867 5867 5866 5865 5865 5864 5863 5863 5862 5861 5861 5858 5857 5858 5857 5855 5852 5851 5850 5851 5850 5850 5850 5850 5849 5849 5849 5848 5847 5847 5847 5847 5847 5846 5844 5843 5843 5842 5842 5843 5842 5841 5841 5841 5840 5840 5840 5840
5876 5875 5874 5874 5874 5874 5874 5875 5875 5875 5875 5875 5875 5875 5875 5875 5875 5875 5875 5875 5875 5875 5874 5874 5874 5874 5873 5873 5872 5872 5872 5871 5871 5870 5870 5869 5869 5869 5868 5868 5868 5867 5866 5866 5865 5864 5863 5862 5862 5862 5862 5860 5859 5858 5858 5855 5853 5851 5850 5851 5850 5850 5850 5850 5850 5849 5849 5848 5848 5847 5847 5847 5847 5846 5845 5844 5842 5842 5842 5841 5841 5841 5840 5840 5840 5840 5840 5840
5876 5875 5874 5873 5873 5874 5874 5874 5875 5875 5875 5875 5875 5875 5875 5875 5875 5875 5875 5875 5875 5875 5875 5874 5874 5874 5873 5873 5873 5872 5872 5871 5871 5870 5870 5869 5869 5869 5869 5868 5868 5867 5867 5866 5865 5864 5864 5863 5862 5861 5862 5862 5861 5861 5860 5857 5853 5851 5851 5850 5850 5851 5851 5851 5851 5850 5849 5849 5848 5848 5847 5847 5846 5845 5844 5844 5843 5843 5842 5841 5841 5840 5840 5840 5840 5839 5840 5840
5876 5875 5874 5873 5873 5874 5874 5875 5875 5875 5875 5875 5875 5875 5875 5875 5875 5875 5876 5875 5875 5875 5875 5874 5874 5874 5874 5873 5873 5872 5872 5871 5871 5871 5870 5870 5869 5869 5869 5868 5868 5867 5867 5866 5865 5865 5864 5863 5862 5861 5862 5862 5862 5862 5861 5857 5854 5852 5851 5850 5851 5851 5851 5852 5851 5850 5849 5849 5848 5848 5847 5847 5846 5845 5844 5844 5844 5844 5843 5842 5841 5840 5841 5841 5840 5839 5840 5840
5876 5875 5875 5874 5874 5874 5874 5875 5875 5875 5875 5875 5875 5875 5875 5875 5876 5876 5876 5876 5876 5875 5875 5875 5874 5874 5873 5873 5873 5872 5872 5871 5871 5870 5870 5870 5869 5869 5868 5868 5868 5867 5867 5866 5865 5865 5865 5864 5862 5862 5863 5862 5861 5860 5860 5858 5855 5853 5852 5851 5851 5852 5852 5852 5851 5850 5849 5848 5848 5848 5847 5847 5846 5845 5845 5845 5845 5844 5843 5842 5841 5841 5842 5842 5841 5840 5840 5839
5876 5876 5875 5875 5875 5875 5875 5875 5875 5875 5875 5875 5875 5875 5876 5876 5876 5876 5876 5876 5876 5876 5875 5875 5874 5874 5874 5873 5873 5872 5872 5871 5871 5870 5870 5869 5869 5869 5868 5868 5868 5868 5867 5866 5865 5865 5865 5864 5862 5863 5863 5862 5861 5860 5859 5858 5855 5854 5852 5852 5852 5852 5853 5852 5850 5849 5849 5849 5849 5848 5848 5846 5845 5845 5844 5845 5845 5843 5841 5840 5840 5841 5842 5842 5841 5840 5840 5839
5877 5876 5876 5875 5875 5875 5875 5875 5875 5876 5876 5876 5876 5876 5876 5876 5876 5876 5876 5876 5876 5876 5876 5875 5875 5874 5874 5873 5873 5872 5872 5871 5870 5870 5870 5869 5869 5868 5868 5868 5868 5868 5867 5866 5865 5865 5864 5864 5863 5862 5863 5863 5862 5861 5859 5857 5855 5854 5853 5853 5853 5853 5852 5851 5850 5850 5850 5850 5849 5849 5847 5846 5845 5844 5844 5844 5844 5842 5840 5839 5840 5840 5841 5840 5840 5839 5839 5838
5877 5877 5876 5876 5876 5876 5875 5875 5876 5876 5876 5876 5876 5877 5877 5877 5877 5877 5877 5877 5877 5876 5876 5876 5875 5874 5874 5873 5873 5872 5872 5871 5871 5870 5870 5869 5868 5868 5868 5868 5867 5867 5867 5866 5865 5865 5864 5864 5863 5863 5863 5863 5862 5861 5859 5856 5855 5854 5853 5853 5853 5853 5852 5851 5850 5850 5851 5850 5850 5848 5846 5845 5844 5844 5844 5843 5843 5842 5841 5839 5839 5840 5840 5839 5839 5839 5839 5838
5878 5877 5877 5876 5876 5876 5876 5876 5876 5876 5876 5877 5877 5877 5877 5877 5877 5877 5877 5877 5877 5877 5876 5876 5875 5874 5874 5873 5873 5872 5872 5871 5871 5870 5869 5869 5868 5868 5867 5867 5867 5867 5866 5865 5865 5864 5864 5863 5862 5863 5863 5862 5861 5859 5858 5856 5855 5854 5853 5853 5853 5852 5851 5850 5850 5851 5851 5850 5849 5846 5844 5844 5843 5843 5844 5843 5842 5842 5841 5839 5838 5839 5839 5839 5838 5838 5838 5838
5878 5878 5877 5877 5877 5877 5876 5876 5876 5877 5877 5877 5877 5878 5878 5878 5878 5877 5877 5877 5877 5877 5876 5876 5875 5875 5874 5873 5873 5872 5872 5871 5871 5870 5869 5869 5868 5867 5867 5866 5866 5866 5865 5865 5864 5864 5864 5862 5862 5863 5862 5861 5860 5858 5857 5856 5855 5854 5854 5853 5853 5852 5851 5851 5851 5852 5851 5850 5849 5846 5843 5843 5844 5844 5845 5844 5842 5842 5841 5840 5839 5838 5838 5838 5838 5838 5837 5837
5878 5878 5878 5878 5877 5877 5877 5877 5877 5877 5877 5877 5877 5878 5878 5878 5878 5878 5877 5877 5877 5877 5876 5876 5875 5875 5874 5873 5872 5872 5872 5871 5870 5870 5869 5868 5868 5867 5866 5866 5866 5865 5865 5865 5864 5864 5863 5862 5862 5862 5861 5860 5859 5858 5856 5855 5855 5854 5854 5854 5853 5853 5853 5853 5852 5851 5849 5848 5848 5845 5842 5843 5844 5845 5845 5844 5843 5842 5841 5840 5839 5838 5837 5838 5837 5837 5837 5837
5879 5879 5878 5878 5878 5878 5877 5877 5877 5877 5877 5878 5878 5878 5878 5878 5878 5877 5877 5877 5877 5876 5876 5876 5875 5875 5874 5873 5872 5871 5871 5871 5870 5870 5869 5868 5867 5867 5866 5866 5865 5865 5865 5864 5863 5863 5862 5862 5862 5861 5859 5859 5858 5857 5856 5856 5855 5855 5855 5854 5854 5853 5853 5853 5851 5849 5848 5847 5847 5844 5843 5844 5845 5844 5844 5843 5843 5842 5840 5838 5838 5837 5837 5838 5837 5837 5837 5836
5879 5879 5879 5878 5878 5878 5878 5878 5878 5878 5878 5878 5878 5878 5878 5878 5877 5877 5877 5877 5876 5876 5875 5875 5875 5874 5874 5873 5872 5871 5870 5870 5869 5869 5868 5868 5867 5866 5866 5866 5865 5865 5864 5863 5863 5862 5862 5862 5861 5860 5858 5857 5857 5856 5856 5856 5855 5855 5855 5854 5854 5853 5852 5851 5849 5848 5847 5846 5845 5844 5844 5844 5843 5843 5843 5842 5841 5841 5839 5837 5836 5836 5837 5837 5837 5836 5836 5835
5879 5879 5879 5878 5878 5878 5878 5878 5878 5878 5878 5878 5878 5878 5877 5877 5877 5877 5877 5876 5876 5875 5875 5874 5874 5873 5873 5873 5872 5871 5870 5869 5869 5868 5867 5866 5866 5865 5865 5865 5864 5864 5863 5862 5862 5862 5862 5861 5860 5859 5858 5857 5856 5855 5855 5855 5854 5854 5854 5854 5852 5851 5850 5848 5848 5847 5846 5845 5844 5843 5843 5843 5842 5842 5842 5841 5840 5840 5838 5836 5835 5835 5835 5836 5836 5835 5834 5834
5879 5879 5879 5878 5878 5878 5878 5878 5878 5878 5878 5877 5877 5877 5877 5877 5877 5876 5876 5876 5875 5875 5874 5874 5873 5873 5872 5872 5871 5871 5870 5869 5868 5867 5866 5865 5865 5864 5864 5863 5863 5863 5863 5862 5862 5861 5860 5859 5858 5858 5857 5856 5855 5855 5855 5854 5854 5854 5853 5851 5850 5849 5848 5848 5848 5847 5845 5843 5842 5842 5842 5841 5841 5841 5841 5842 5841 5840 5838 5836 5834 5834 5833 5833 5834 5834 5833 5832
5880 5879 5879 5878 5878 5878 5878 5877 5877 5877 5877 5877 5876 5876 5876 5876 5876 5876 5875 5875 5875 5874 5874 5873 5872 5872 5871 5871 5870 5870 5869 5868 5867 5866 5865 5864 5864 5863 5862 5862 5862 5862 5862 5861 5860 5859 5859 5858 5857 5856 5855 5854 5854 5854 5854 5854 5854 5852 5850 5848 5847 5847 5847 5848 5847 5844 5843 5843 5842 5841 5841 5841 5841 5840 5840 5841 5840 5839 5837 5834 5832 5833 5832 5832 5832 5832 5832 5831
5879 5879 5879 5878 5878 5877 5877 5877 5877 5877 5876 5876 5876 5876 5876 5875 5875 5875 5875 5874 5874 5873 5873 5872 5872 5871 5871 5870 5869 5869 5868 5868 5867 5866 5865 5864 5863 5862 5861 5861 5861 5861 5861 5859 5858 5857 5857 5857 5855 5854 5853 5853 5853 5853 5853 5853 5852 5850 5848 5847 5846 5846 5846 5846 5844 5842 5842 5842 5842 5842 5841 5841 5841 5840 5839 5839 5839 5837 5835 5833 5831 5831 5831 5831 5831 5831 5830 5829
5879 5879 5878 5878 5877 5877 5877 5876 5876 5876 5876 5875 5875 5875 5875 5874 5874 5874 5874 5873 5873 5873 5872 5872 5872 5871 5870 5869 5868 5868 5867 5867 5866 5865 5865 5864 5863 5862 5861 5861 5860 5860 5859 5858 5856 5856 5855 5855 5854 5853 5853 5852 5852 5852 5851 5850 5849 5848 5846 5846 5845 5844 5843 5843 5841 5841 5841 5841 5841 5841 5841 5841 5840 5839 5838 5838 5837 5835 5833 5832 5830 5829 5829 5830 5830 5829 5828 5827
5879 5879 5878 5878 5877 5877 5876 5876 5876 5875 5875 5875 5874 5874 5874 5874 5873 5873 5873 5872 5872 5872 5871 5871 5871 5871 5870 5869 5868 5867 5866 5865 5865 5864 5863 5862 5861 5861 5860 5860 5859 5858 5858 5857 5856 5855 5854 5853 5853 5852 5852 5851 5850 5849 5848 5847 5846 5845 5844 5844 5843 5842 5842 5842 5840 5840 5841 5841 5841 5840 5840 5840 5839 5838 5836 5836 5836 5833 5831 5832 5830 5828 5828 5828 5828 5827 5826 5824
5878 5878 5878 5877 5877 5876 5876 5875 5875 5875 5874 5874 5874 5874 5873 5873 5873 5872 5872 5871 5871 5871 5870 5870 5870 5870 5869 5868 5867 5866 5864 5864 5864 5863 5862 5861 5860 5860 5859 5858 5857 5857 5856 5856 5855 5854 5854 5853 5852 5851 5850 5849 5846 5845 5845 5845 5844 5844 5843 5843 5842 5842 5842 5842 5841 5841 5841 5840 5839 5838 5837 5837 5837 5837 5835 5834 5833 5832 5831 5831 5829 5827 5826 5825 5825 5824 5823 5823
5877 5877 5877 5877 5876 5876 5875 5875 5874 5874 5874 5874 5873 5873 5873 5872 5872 5871 5871 5871 5870 5869 5869 5869 5869 5869 5868 5867 5866 5865 5864 5862 5862 5862 5861 5861 5860 5859 5858 5857 5856 5855 5855 5854 5854 5854 5853 5853 5851 5850 5848 5847 5845 5843 5843 5844 5844 5844 5843 5842 5842 5842 5842 5841 5840 5839 5839 5838 5837 5836 5835 5834 5835 5835 5833 5831 5831 5830 5829 5828 5827 5825 5824 5823 5822 5822 5821 5821
5876 5876 5876 5876 5875 5875 5874 5874 5874 5873 5873 5873 5873 5872 5872 5871 5871 5870 5870 5870 5869 5869 5868 5868 5868 5867 5866 5866 5865 5865 5864 5863 5862 5862 5862 5861 5860 5858 5857 5856 5856 5855 5854 5853 5853 5852 5852 5851 5849 5847 5845 5845 5844 5843 5843 5844 5844 5843 5841 5841 5841 5841 5840 5839 5838 5837 5837 5836 5834 5834 5834 5833 5834 5833 5831 5830 5829 5828 5827 5825 5824 5823 5822 5821 5821 5820 5820 5819
5875 5875 5874 5874 5874 5874 5873 5873 5873 5872 5872 5872 5872 5872 5871 5871 5870 5870 5869 5869 5868 5868 5868 5867 5867 5866 5865 5865 5864 5864 5864 5863 5862 5861 5860 5859 5858 5857 5857 5856 5856 5855 5853 5852 5851 5849 5849 5848 5847 5845 5843 5843 5844 5843 5843 5843 5843 5842 5840 5839 5839 5839 5839 5838 5837 5836 5836 5835 5833 5834 5834 5833 5832 5830 5828 5828 5826 5825 5824 5823 5822 5821 5821 5820 5819 5818 5817 5817
5873 5873 5873 5873 5873 5872 5872 5872 5872 5871 5871 5871 5871 5871 5870 5870 5870 5869 5868 5868 5867 5867 5867 5866 5865 5865 5864 5864 5863 5863 5862 5862 5862 5861 5859 5858 5857 5856 5856 5855 5854 5853 5852 5851 5850 5849 5848 5847 5845 5844 5843 5842 5843 5843 5843 5843 5842 5841 5839 5838 5838 5838 5837 5836 5836 5835 5834 5833 5832 5834 5834 5832 5831 5828 5825 5825 5824 5823 5822 5822 5821 5820 5819 5818 5816 5815 5814 5814
5872 5871 5871 5871 5871 5871 5871 5871 5870 5870 5870 5870 5869 5869 5869 5869 5869 5868 5868 5867 5866 5866 5866 5865 5864 5863 5863 5863 5863 5862 5861 5860 5859 5859 5858 5857 5856 5855 5855 5854 5853 5852 5850 5850 5850 5849 5848 5846 5845 5844 5843 5842 5842 5842 5842 5842 5841 5840 5839 5838 5837 5836 5836 5835 5834 5833 5833 5832 5832 5832 5831 5830 5829 5825 5823 5822 5822 5821 5820 5820 5819 5818 5816 5815 5813 5812 5812 5812
5870 5870 5869 5869 5869 5869 5869 5869 5869 5869 5868 5868 5868 5868 5868 5867 5868 5867 5867 5866 5866 5865 5865 5864 5863 5863 5862 5862 5861 5861 5861 5860 5858 5857 5856 5856 5855 5854 5854 5853 5852 5851 5850 5849 5848 5848 5847 5846 5844 5843 5842 5842 5841 5841 5840 5840 5840 5839 5839 5838 5837 5835 5834 5833 5833 5832 5831 5831 5830 5829 5828 5827 5825 5822 5820 5820 5820 5819 5818 5817 5817 5815 5813 5812 5811 5811 5810 5810
5869 5868 5868 5867 5867 5867 5867 5867 5867 5867 5867 5866 5866 5866 5866 5866 5866 5866 5865 5865 5864 5864 5863 5863 5862 5862 5861 5860 5860 5860 5859 5859 5859 5857 5856 5855 5854 5853 5852 5852 5851 5850 5849 5848 5847 5847 5846 5845 5844 5843 5842 5841 5841 5840 5839 5838 5838 5838 5837 5837 5836 5835 5833 5832 5832 5831 5830 5830 5828 5827 5826 5823 5821 5819 5817 5817 5817 5817 5816 5815 5815 5813 5811 5810 5809 5808 5808 5807
5867 5867 5866 5866 5865 5865 5865 5865 5865 5865 5865 5864 5864 5864 5864 5864 5864 5864 5864 5863 5862 5862 5861 5861 5860 5860 5859 5859 5858 5858 5857 5857 5858 5857 5856 5855 5854 5852 5851 5850 5850 5849 5848 5847 5846 5846 5845 5844 5843 5842 5842 5841 5840 5838 5838 5837 5836 5835 5835 5835 5834 5833 5832 5831 5830 5830 5829 5828 5827 5826 5824 5821 5818 5816 5814 5813 5812 5813 5813 5813 5812 5811 5810 5808 5807 5805 5804 5802
5866 5865 5865 5864 5864 5863 5863 5863 5863 5863 5863 5863 5862 5862 5862 5862 5862 5862 5862 5861 5860 5860 5859 5859 5858 5858 5858 5858 5857 5856 5856 5855 5855 5855 5855 5855 5853 5852 5851 5850 5849 5848 5846 5845 5844 5844 5844 5843 5842 5841 5840 5840 5839 5837 5836 5835 5833 5832 5832 5832 5831 5830 5830 5829 5828 5827 5826 5825 5824 5823 5821 5819 5817 5815 5812 5810 5809 5809 5810 5810 5809 5807 5806 5805 5803 5802 5800 5798
5864 5863 5863 5862 5862 5861 5861 5861 5861 5861 5861 5861 5860 5860 5860 5860 5860 5860 5860 5859 5859 5858 5858 5857 5857 5856 5856 5856 5855 5855 5854 5853 5853 5852 5853 5853 5853 5851 5850 5849 5848 5847 5846 5844 5843 5842 5842 5841 5841 5840 5839 5838 5838 5836 5835 5833 5831 5829 5828 5828 5828 5827 5827 5826 5825 5824 5823 5822 5821 5820 5819 5818 5816 5814 5812 5810 5808 5807 5807 5806 5805 5804 5803 5802 5800 5799 5797 5795
5862 5861 5861 5860 5860 5859 5859 5859 5859 5859 5859 5859 5858 5858 5858 5858 5857 5858 5858 5857 5857 5856 5856 5856 5855 5854 5854 5854 5853 5853 5852 5852 5851 5850 5850 5851 5851 5850 5849 5848 5847 5847 5845 5844 5842 5841 5840 5839 5839 5838 5837 5836 5835 5834 5833 5831 5829 5826 5825 5824 5823 5824 5824 5823 5823 5821 5820 5819 5819 5818 5817 5815 5813 5812 5811 5809 5807 5806 5804 5803 5802 5801 5800 5798 5797 5795 5793 5790
5860 5859 5859 5858 5858 5858 5857 5857 5857 5857 5857 5856 5856 5856 5855 5855 5855 5856 5856 5855 5854 5854 5853 5853 5853 5852 5852 5851 5851 5850 5850 5849 5849 5848 5848 5848 5848 5848 5847 5845 5845 5844 5844 5842 5841 5839 5838 5837 5836 5835 5834 5833 5832 5831 5831 5830 5828 5825 5824 5822 5820 5820 5820 5820 5820 5819 5818 5817 5816 5816 5815 5812 5810 5809 5808 5806 5804 5803 5802 5801 5799 5797 5796 5794 5792 5790 5788 5786
5857 5856 5856 5856 5856 5856 5855 5855 5855 5855 5854 5854 5853 5853 5853 5853 5853 5853 5853 5853 5852 5851 5850 5850 5850 5849 5848 5848 5849 5848 5847 5847 5846 5846 5845 5844 5845 5845 5845 5843 5842 5841 5840 5840 5839 5838 5836 5834 5833 5832 5831 5830 5829 5828 5827 5827 5826 5824 5823 5821 5819 5817 5816 5816 5816 5816 5816 5815 5814 5813 5812 5809 5807 5806 5806 5804 5802 5801 5800 5798 5795 5793 5791 5789 5787 5785 5783 5781
5855 5854 5853 5853 5853 5853 5853 5852 5852 5852 5851 5851 5850 5850 5849 5850 5850 5850 5850 5850 5849 5848 5847 5847 5848 5846 5845 5845 5845 5846 5846 5845 5843 5843 5842 5841 5841 5842 5842 5842 5840 5839 5837 5837 5836 5836 5835 5833 5831 5829 5828 5828 5827 5825 5822 5822 5822 5821 5820 5819 5817 5815 5814 5813 5812 5812 5811 5810 5810 5809 5808 5806 5804 5803 5802 5800 5799 5798 5796 5794 5791 5789 5786 5784 5781 5779 5778 5776
5852 5851 5850 5850 5850 5850 5850 5850 5849 5849 5849 5848 5847 5846 5846 5846 5847 5847 5847 5846 5846 5846 5845 5844 5845 5843 5842 5841 5841 5843 5844 5842 5841 5841 5840 5838 5837 5838 5839 5839 5838 5837 5835 5833 5832 5833 5833 5832 5829 5827 5826 5825 5824 5823 5820 5818 5818 5818 5817 5816 5815 5813 5811 5809 5808 5808 5806 5805 5804 5803 5802 5801 5800 5798 5797 5796 5794 5793 5791 5788 5786 5783 5781 5778 5776 5774 5772 5770
5848 5847 5847 5846 5846 5846 5847 5847 5846 5846 5846 5845 5844 5843 5843 5843 5844 5845 5844 5842 5841 5842 5842 5841 5841 5841 5839 5837 5837 5839 5840 5839 5838 5837 5836 5835 5833 5834 5834 5834 5835 5834 5832 5830 5829 5829 5829 5829 5827 5825 5824 5822 5820 5819 5817 5814 5813 5813 5813 5812 5811 5810 5808 5806 5805 5804 5802 5800 5799 5799 5797 5796 5795 5793 5792 5790 5789 5788 5785 5781 5779 5776 5774 5772 5770 5768 5765 5764
5845 5844 5842 5842 5842 5842 5843 5843 5842 5842 5842 5841 5841 5840 5839 5839 5841 5841 5840 5839 5837 5837 5838 5837 5838 5838 5836 5834 5832 5833 5834 5834 5834 5834 5833 5831 5829 5829 5830 5830 5830 5831 5829 5827 5825 5825 5824 5825 5824 5823 5821 5820 5817 5816 5814 5811 5810 5809 5808 5808 5807 5806 5805 5804 5802 5801 5799 5797 5795 5794 5793 5792 5790 5789 5788 5785 5783 5781 5778 5775 5771 5769 5768 5766 5763 5761 5759 5757
5841 5840 5838 5838 5839 5839 5839 5838 5838 5838 5838 5837 5837 5837 5836 5836 5837 5838 5836 5835 5834 5834 5833 5833 5834 5834 5833 5832 5830 5828 5828 5829 5829 5829 5828 5826 5825 5824 5824 5825 5825 5825 5825 5823 5822 5821 5820 5819 5820 5820 5818 5817 5815 5813 5811 5809 5807 5806 5805 5804 5803 5802 5800 5800 5799 5798 5796 5793 5791 5789 5788 5788 5786 5784 5783 5781 5779 5776 5772 5769 5766 5764 5762 5760 5758 5756 5754 5752
5836 5836 5833 5834 5835 5835 5834 5833 5833 5833 5833 5833 5833 5832 5832 5832 5832 5833 5832 5831 5831 5830 5829 5829 5829 5829 5829 5829 5827 5826 5825 5824 5824 5823 5822 5822 5820 5818 5818 5820 5820 5819 5820 5819 5818 5817 5815 5813 5814 5815 5815 5814 5813 5811 5808 5806 5804 5802 5801 5800 5800 5799 5797 5795 5794 5793 5790 5788 5786 5783 5781 5781 5780 5778 5776 5775 5773 5770 5767 5764 5761 5759 5757 5755 5753 5751 5748 5746
5830 5831 5829 5828 5831 5831 5830 5828 5828 5828 5828 5828 5828 5827 5827 5828 5828 5828 5828 5828 5827 5825 5824 5824 5824 5825 5825 5824 5823 5822 5821 5821 5820 5819 5818 5817 5816 5814 5814 5814 5815 5814 5814 5814 5813 5812 5811 5808 5808 5810 5810 5810 5809 5807 5804 5802 5800 5799 5797 5795 5795 5795 5793 5791 5788 5787 5785 5783 5782 5779 5775 5775 5775 5773 5771 5769 5766 5764 5761 5758 5756 5754 5752 5750 5747 5745 5742 5739
5824 5825 5824 5823 5825 5826 5825 5824 5823 5823 5823 5823 5823 5823 5822 5822 5823 5823 5823 5823 5822 5821 5820 5820 5820 5819 5819 5819 5818 5818 5817 5817 5817 5815 5814 5813 5812 5811 5810 5809 5810 5810 5809 5809 5808 5807 5806 5803 5802 5804 5804 5804 5805 5803 5800 5798 5796 5794 5792 5791 5791 5789 5788 5786 5784 5782 5780 5778 5777 5774 5769 5769 5771 5768 5765 5763 5760 5756 5754 5752 5749 5748 5745 5743 5740 5737 5735 5732
5818 5819 5819 5818 5819 5820 5819 5819 5818 5817 5817 5817 5817 5817 5817 5817 5818 5819 5818 5817 5816 5817 5817 5816 5816 5815 5813 5813 5813 5813 5813 5812 5811 5811 5810 5809 5808 5807 5805 5805 5805 5804 5804 5804 5803 5802 5801 5799 5798 5799 5799 5799 5799 5798 5796 5794 5791 5789 5787 5787 5786 5784 5783 5780 5778 5776 5773 5772 5771 5768 5763 5763 5764 5762 5758 5754 5750 5747 5746 5744 5741 5739 5737 5735 5732 5730 5727 5724
5811 5813 5813 5812 5812 5813 5813 5813 5814 5812 5811 5811 5811 5812 5811 5811 5812 5813 5813 5812 5810 5810 5811 5811 5811 5810 5809 5808 5808 5808 5808 5807 5806 5806 5805 5804 5804 5802 5801 5800 5800 5799 5799 5798 5798 5797 5796 5794 5794 5793 5793 5794 5794 5793 5791 5790 5787 5784 5783 5781 5780 5779 5777 5774 5773 5770 5766 5766 5764 5758 5756 5756 5754 5753 5751 5746 5741 5740 5738 5736 5733 5731 5728 5726 5724 5722 5719 5715
5804 5805 5807 5806 5805 5806 5806 5806 5808 5808 5807 5806 5805 5805 5805 5806 5806 5807 5807 5807 5805 5804 5804 5805 5805 5804 5803 5802 5802 5802 5802 5802 5801 5800 5800 5799 5799 5798 5796 5795 5794 5794 5793 5793 5793 5792 5791 5789 5789 5787 5786 5786 5787 5786 5785 5784 5782 5780 5778 5775 5774 5773 5770 5768 5766 5761 5759 5760 5755 5748 5750 5752 5747 5744 5741 5737 5733 5732 5730 5728 5725 5723 5720 5718 5717 5715 5711 5707
5797 5798 5800 5801 5800 5798 5798 5800 5801 5801 5802 5802 5800 5798 5798 5799 5800 5801 5801 5801 5800 5799 5798 5798 5799 5798 5797 5796 5796 5795 5795 5796 5795 5795 5795 5794 5793 5792 5791 5790 5789 5788 5788 5788 5787 5787 5786 5785 5785 5783 5781 5780 5779 5779 5779 5776 5775 5774 5772 5770 5769 5767 5764 5761 5758 5756 5754 5752 5748 5744 5745 5745 5744 5741 5735 5730 5728 5725 5722 5719 5717 5715 5712 5710 5709 5707 5703 5699
5790 5790 5792 5794 5795 5793 5792 5792 5794 5794 5794 5795 5795 5794 5793 5792 5792 5794 5794 5794 5794 5794 5793 5792 5792 5792 5791 5791 5789 5788 5788 5789 5789 5789 5789 5789 5788 5786 5785 5784 5783 5781 5781 5782 5781 5781 5781 5780 5780 5779 5777 5776 5774 5774 5773 5770 5768 5767 5765 5765 5765 5763 5760 5757 5753 5752 5750 5744 5743 5746 5742 5736 5738 5738 5731 5727 5724 5720 5716 5713 5710 5708 5705 5702 5699 5696 5692 5689
5783 5783 5784 5785 5787 5789 5788 5786 5786 5786 5786 5787 5787 5788 5787 5787 5787 5787 5788 5786 5786 5786 5786 5786 5785 5785 5785 5785 5783 5782 5782 5782 5782 5783 5784 5783 5782 5781 5780 5778 5777 5775 5774 5774 5774 5774 5774 5774 5774 5773 5772 5771 5769 5769 5768 5765 5762 5760 5757 5758 5760 5759 5755 5752 5749 5748 5744 5737 5737 5741 5737 5731 5730 5729 5725 5722 5719 5714 5710 5706 5703 5700 5697 5693 5690 5686 5681 5678
5775 5775 5776 5776 5777 5780 5783 5782 5780 5780 5780 5779 5779 5780 5780 5781 5781 5782 5781 5780 5779 5779 5778 5778 5779 5779 5779 5779 5777 5776 5776 5776 5777 5778 5778 5778 5777 5775 5774 5772 5770 5770 5769 5768 5768 5767 5766 5766 5766 5766 5766 5764 5763 5763 5762 5759 5756 5753 5751 5752 5754 5752 5748 5745 5743 5742 5738 5732 5731 5731 5729 5726 5723 5720 5717 5714 5710 5706 5703 5698 5694 5691 5688 5684 5681 5676 5672 5668
5767 5767 5768 5768 5769 5771 5773 5775 5775 5774 5773 5772 5772 5773 5774 5773 5773 5774 5774 5774 5773 5772 5771 5771 5771 5771 5772 5772 5772 5771 5771 5771 5771 5771 5772 5772 5771 5769 5768 5766 5764 5764 5763 5762 5761 5760 5759 5758 5757 5757 5757 5756 5756 5757 5755 5752 5749 5746 5746 5748 5748 5744 5742 5739 5737 5736 5731 5728 5726 5723 5720 5719 5715 5711 5709 5706 5702 5699 5694 5689 5686 5683 5679 5676 5672 5667 5663 5659
5758 5758 5758 5758 5761 5763 5763 5765 5767 5767 5768 5767 5766 5767 5767 5766 5765 5764 5764 5766 5766 5765 5765 5763 5763 5764 5765 5765 5766 5766 5767 5766 5765 5765 5764 5764 5763 5762 5761 5760 5759 5758 5757 5757 5756 5755 5753 5751 5750 5749 5746 5746 5748 5747 5746 5745 5741 5738 5741 5744 5740 5736 5735 5734 5731 5728 5725 5722 5718 5715 5712 5710 5707 5703 5701 5699 5695 5691 5686 5681 5677 5675 5672 5667 5663 5659 5655 5651
5748 5749 5749 5748 5751 5754 5755 5755 5757 5758 5760 5761 5760 5760 5759 5758 5757 5756 5755 5757 5759 5758 5758 5757 5757 5759 5759 5758 5757 5757 5759 5760 5760 5759 5758 5756 5756 5755 5754 5754 5753 5752 5752 5752 5750 5749 5747 5745 5744 5741 5738 5738 5738 5737 5738 5735 5730 5731 5737 5736 5731 5729 5728 5725 5723 5720 5718 5714 5710 5706 5704 5702 5698 5696 5694 5692 5689 5683 5678 5673 5669 5667 5664 5660 5654 5649 5645 5642